Regional Weather Roundup
Issued by NWS

Home | Current Version | Previous Version | Text Only | Print | Product List | Glossary On
Versions: 1 2 3 4 5 6 7 8 9 10 11 12 13 14 15 16 17 18 19 20 21 22 23 24 25 26 27 28 29 30 31 32 33 34 35 36 37 38 39 40 41 42 43 44 45 46 47 48 49 50
000
ASUS46 KSEW 201710
RWRWA

WASHINGTON REGIONAL WEATHER ROUNDUP
NATIONAL WEATHER SERVICE SEATTLE WA
1000 AM PDT THU JUL 20 2017

NOTE:"FAIR" INDICATES FEW OR NO CLOUDS BELOW 12,000 FEET WITH NO
SIGNIFICANT WEATHER AND/OR OBSTRUCTIONS TO VISIBILITY.

WAZ507-509-555>559-201800-
SEATTLE, TACOMA, EVERETT, AND VICINITY

CITY           SKY/WX    TMP DP  RH WIND       PRES   REMARKS
EVERETT        CLOUDY    64  54  69 S14       30.12R
BOEING FIELD   PTSUNNY   64  56  75 S9        30.12R
RENTON         CLOUDY    65  57  75 SE14      30.12R
SEATAC AIRPORT PTSUNNY   64  54  69 S14       30.13R
JBLM-MCCHORD   CLOUDY    62  62 100 SW9       30.14R
PUYALLUP       DRIZZLE   59  59 100 W5        30.15S
BREMERTON      MOSUNNY   66  55  67 S15G22    30.11R
JBLM-FT LEWIS  PTSUNNY   62  62  99 SE9       30.13S
TACOMA NARROWS CLOUDY    61  55  81 S12       30.14R
$$

WAZ001-503-506-510-514-515-201800-
NORTH INTERIOR

CITY           SKY/WX    TMP DP  RH WIND       PRES   REMARKS
BELLINGHAM     LGT RAIN  60  59  96 S8        30.09S
FRIDAY HARBOR  CLOUDY    60  56  86 SE7       30.10S
EASTSOUND      CLOUDY    63  55  77 S10G16    30.08S
PORT ANGELES   CLOUDY    63  54  72 VRB7      30.11R
EDIZ HOOK      PTSUNNY   62  54  73 CALM      30.10R
PORT TOWNSEND  CLOUDY    63  57  82 CALM      30.11R
NAS WHIDBEY    LGT RAIN  64  54  69 SE5       30.14R
ARLINGTON      CLOUDY    63  55  75 SW6       30.11R
BURLINGTON     CLOUDY    59  59 100 SW8       30.11R FOG
$$

WAZ020-022-039-040-504-511-512-201800-
SOUTHWEST INTERIOR

CITY           SKY/WX    TMP DP  RH WIND       PRES   REMARKS
SHELTON        CLOUDY    66  55  67 SW9       30.10S
OLYMPIA        CLOUDY    62  58  86 S12       30.14S
CHEHALIS       CLOUDY    63  59  88 S7        30.16R
KELSO          CLOUDY    62  58  86 S7        30.18R
VANCOUVER      LGT RAIN  64  55  72 VRB3      30.16F
SCAPPOOSE, OR  CLOUDY    64  55  72 VRB5      30.16S
PORTLAND, OR   CLOUDY    64  54  69 SW7       30.17S
$$

WAZ021-516-517-201800-
WASHINGTON COAST

CITY           SKY/WX    TMP DP  RH WIND       PRES   REMARKS
FORKS          CLOUDY    60  58  92 S3        30.11S
HOQUIAM        CLOUDY    60  58  92 S12       30.14R FOG
ASTORIA, OR    CLOUDY    64  55  72 SW7       30.15R
$$

WAZ019-023-024-040-567>569-201800-
CASCADE MOUNTAINS AND COLUMBIA GORGE

CITY           SKY/WX    TMP DP  RH WIND       PRES   REMARKS
STAMPEDE PASS  CLOUDY    51  47  86 VRB7      30.15S FOG
TROUTDALE, OR  CLOUDY    65  53  65 SW8       30.17S
HOOD RIVER, OR SUNNY     66  52  59 W8        30.13F
THE DALLES, OR SUNNY     71  51  49 NW21      30.10R
$$

WAZ026-027-041>044-520-521-201800-
EAST SLOPES

CITY           SKY/WX    TMP DP  RH WIND       PRES   REMARKS
OMAK           SUNNY     76  43  30 SE5       29.93S
WENATCHEE      SUNNY     74  40  29 NW17      29.98S
ELLENSBURG     SUNNY     70  46  42 NW23G30   30.05S
YAKIMA         SUNNY     77  46  33 S5        30.03S
SUNNYSIDE ARPT   N/A     70  47  43 W3        30.04S
YAKIMA TC      FAIR      74  41  30 NW8       30.02F
$$

WAZ028-034-035-201800-
COLUMBIA BASIN

CITY           SKY/WX    TMP DP  RH WIND       PRES   REMARKS
EPHRATA        SUNNY     76  41  28 SW16      29.97S
MOSES LAKE     SUNNY     75  45  34 SW15      29.99S
PASCO          SUNNY     75  50  41 SW17      30.04S
RICHLAND ARPT  SUNNY     78  49  36 S13G20    30.03S
HERMISTON, OR  SUNNY     74  47  38 SW17G28   30.06F
$$

WAZ036>038-201800-
NORTHEAST WASHINGTON

CITY           SKY/WX    TMP DP  RH WIND       PRES   REMARKS
SPOKANE GEIGER MOSUNNY   71  45  39 SW25      30.03S
SPOKANE FELTS  PTSUNNY   74  46  36 SW15G21   30.03S
FAIRCHILD AFB  SUNNY     70  45  41 SW18G25   30.03S
COEURDALENE,ID SUNNY     72  47  40 S12G21    30.05S
DEER PARK      SUNNY     70  44  39 S16       30.03S
$$

WAZ029>033-201800-
SOUTHEAST WASHINGTON

CITY           SKY/WX    TMP DP  RH WIND       PRES   REMARKS
PULLMAN        SUNNY     70  47  43 SW14G23   30.10R
LEWISTON, ID   SUNNY     78  45  30 VRB6      30.03S
WALLA WALLA    SUNNY     75  48  38 S16       30.07F
PENDLETON, OR  SUNNY     73  45  36 W17G24    30.09S
$$



USA.gov is the U.S. government's official web portal to all federal, state and local government web resources and services.